Lyndonville, VT

10:19 AM EDT on April 23, 2017 (GMT -0400)
Lyndonville

Weather History for KCDA - March, 2014

Change the Weather History Date:

Friday, March 14, 2014

  Actual Average (K1V4) Record (K1V4)
Temperature  
Mean Temperature 11 °F -  
Max Temperature 30 °F 34 °F 62 °F (1946)
Min Temperature -6 °F 16 °F -17 °F (1926)
Degree Days  
Heating Degree Days 54    
Moisture  
Dew Point 1 °F    
Average Humidity 57    
Maximum Humidity 80    
Minimum Humidity 40    
Precipitation  
Precipitation 0.00 in - - ()
Sea Level Pressure  
Sea Level Pressure 29.90 in    
Wind  
Wind Speed 5 mph (SSW)    
Max Wind Speed 17 mph    
Max Gust Speed 23 mph    
Visibility 10 miles    
Events Snow    
Averages and records for this station are not official NWS values.
T = Trace of Precipitation, MM = Missing Value Source: NWS Daily Summary

Daily Weather History Graph

Daily Weather History Graph

Search for Another Location

Airport or City:

Trip Planner

Search our weather history database for the weather conditions in past years. The results will help you decide how hot, cold, wet, or windy it might be!

Date:

Astronomy

Mar. 14, 2014 Rise Set
Actual Time 7:02 AM EDT 6:52 PM EDT
Civil Twilight 6:33 AM EDT 7:21 PM EDT
Nautical Twilight 5:59 AM EDT 7:55 PM EDT
Astronomical Twilight 5:25 AM EDT 8:30 PM EDT
Moon 5:09 PM EDT (3/14) 5:44 AM EDT (3/14)
Length of Visible Light 12h 48m
Length of Day
11h 50m
Waxing Gibbous, 96% of the Moon is Illuminated
Mar 14
Waxing Gibbous
Mar 16
Full
Mar 23
Last Quarter
Mar 30
New
Apr 7
First Quarter

Hourly Weather History & Observations

Time (EDT) Temp. Windchill Dew Point Humidity Pressure Visibility Wind Dir Wind Speed Gust Speed Precip Events Conditions
12:15 AM 3.2 °F - -10.1 °F 54% 29.85 in 10.0 mi Calm Calm - N/A   Clear
12:35 AM 4.6 °F - -9.8 °F 51% 29.86 in 10.0 mi Calm Calm - N/A   Clear
12:55 AM 5.0 °F -2.1 °F -10.5 °F 49% 29.87 in 10.0 mi SW 3.5 mph - N/A   Clear
1:15 AM 2.8 °F - -10.1 °F 55% 29.87 in 10.0 mi Calm Calm - N/A   Clear
1:35 AM 3.9 °F -6.9 °F -10.8 °F 51% 29.88 in 10.0 mi SW 5.8 mph - N/A   Clear
1:55 AM 6.4 °F -3.9 °F -11.0 °F 45% 29.89 in 10.0 mi SW 5.8 mph - N/A   Clear
2:15 AM 4.8 °F -5.8 °F -11.7 °F 46% 29.90 in 10.0 mi SW 5.8 mph - N/A   Clear
2:35 AM 5.5 °F -1.5 °F -9.8 °F 49% 29.91 in 10.0 mi SW 3.5 mph - N/A   Clear
2:55 AM 5.7 °F - -10.1 °F 48% 29.91 in 10.0 mi Calm Calm - N/A   Clear
3:15 AM 2.3 °F -5.2 °F -9.0 °F 59% 29.92 in 10.0 mi SW 3.5 mph - N/A   Clear
3:35 AM 0.9 °F - -10.1 °F 60% 29.93 in 10.0 mi Calm Calm - N/A   Clear
3:55 AM 2.5 °F - -9.2 °F 58% 29.93 in 10.0 mi Calm Calm - N/A   Clear
4:15 AM 4.3 °F - -9.4 °F 53% 29.95 in 10.0 mi Calm Calm - N/A   Clear
4:35 AM 4.1 °F - -9.2 °F 54% 29.95 in 10.0 mi Calm Calm - N/A   Clear
4:55 AM 0.7 °F - -10.7 °F 59% 29.96 in 10.0 mi Calm Calm - N/A   Clear
5:15 AM -4.7 °F -13.2 °F -10.3 °F 77% 29.97 in 10.0 mi SW 3.5 mph - N/A   Clear
5:35 AM -2.4 °F - -8.9 °F 74% 29.97 in 10.0 mi Calm Calm - N/A   Clear
5:55 AM -1.3 °F - -9.0 °F 70% 29.98 in 10.0 mi Calm Calm - N/A   Clear
6:15 AM -2.9 °F - -10.3 °F 71% 29.98 in 10.0 mi Calm Calm - N/A   Clear
6:35 AM -4.0 °F - -10.8 °F 72% 29.99 in 10.0 mi Calm Calm - N/A   Clear
6:55 AM -4.9 °F - -9.8 °F 80% 29.99 in 10.0 mi Calm Calm - N/A   Clear
7:15 AM -6.2 °F - -11.6 °F 77% 30.00 in 10.0 mi Calm Calm - N/A   Clear
7:35 AM -5.1 °F - -10.5 °F 78% 30.01 in 10.0 mi Calm Calm - N/A   Clear
7:55 AM -6.5 °F - -12.3 °F 76% 30.02 in 10.0 mi Calm Calm - N/A   Clear
8:15 AM -4.7 °F - -11.7 °F 72% 30.01 in 10.0 mi Calm Calm - N/A   Clear
8:35 AM -4.2 °F - -11.7 °F 70% 30.02 in 10.0 mi Calm Calm - N/A   Clear
8:55 AM -2.9 °F - -11.7 °F 66% 30.01 in 10.0 mi Calm Calm - N/A   Clear
9:15 AM 0.5 °F - -9.2 °F 64% 30.02 in 10.0 mi Calm Calm - N/A   Clear
9:35 AM 2.7 °F - -8.5 °F 60% 30.01 in 10.0 mi Calm Calm - N/A   Clear
9:55 AM 5.4 °F -5.2 °F -7.4 °F 56% 30.02 in 10.0 mi South 5.8 mph - N/A   Clear
10:15 AM 8.4 °F -1.6 °F -6.7 °F 50% 30.01 in 10.0 mi SW 5.8 mph - N/A   Clear
10:35 AM 10.0 °F -0.9 °F -6.0 °F 48% 30.00 in 10.0 mi SW 6.9 mph - N/A   Clear
10:55 AM 13.1 °F -1.4 °F -5.4 °F 44% 30.00 in 10.0 mi SW 12.7 mph - N/A   Scattered Clouds
11:15 AM 14.5 °F 3.6 °F -4.5 °F 43% 29.99 in 10.0 mi SW 8.1 mph - N/A   Mostly Cloudy
11:35 AM 15.1 °F 3.3 °F -4.2 °F 42% 29.99 in 10.0 mi SW 9.2 mph 17.3 mph N/A   Overcast
11:55 AM 16.5 °F 6.0 °F -3.5 °F 41% 29.98 in 10.0 mi SW 8.1 mph - N/A   Overcast
12:15 PM 18.5 °F 6.1 °F -2.6 °F 40% 29.97 in 10.0 mi SW 11.5 mph - N/A   Overcast
12:35 PM 19.4 °F 5.5 °F -1.3 °F 40% 29.97 in 10.0 mi SW 15.0 mph 18.4 mph N/A   Overcast
12:55 PM 20.1 °F 8.1 °F 1.2 °F 44% 29.96 in 10.0 mi SW 11.5 mph 23.0 mph N/A   Overcast
1:15 PM 21.0 °F 6.6 °F 2.8 °F 45% 29.94 in 10.0 mi SW 17.3 mph 21.9 mph N/A   Mostly Cloudy
1:35 PM 21.9 °F 9.2 °F 4.8 °F 48% 29.93 in 10.0 mi SW 13.8 mph 21.9 mph N/A   Overcast
1:55 PM 22.1 °F 9.5 °F 6.1 °F 50% 29.91 in 10.0 mi SW 13.8 mph 23.0 mph N/A   Overcast
2:15 PM 22.8 °F 9.4 °F 6.8 °F 50% 29.91 in 10.0 mi SW 16.1 mph 20.7 mph N/A   Overcast
2:35 PM 23.5 °F 15.4 °F 6.8 °F 49% 29.91 in 10.0 mi SW 6.9 mph 18.4 mph N/A   Overcast
2:55 PM 23.5 °F 13.0 °F 7.7 °F 51% 29.90 in 10.0 mi SW 10.4 mph 17.3 mph N/A   Overcast
3:15 PM 23.9 °F 12.3 °F 9.1 °F 53% 29.89 in 10.0 mi SW 12.7 mph 21.9 mph N/A   Overcast
3:35 PM 24.4 °F 13.0 °F 9.9 °F 54% 29.88 in 10.0 mi SW 12.7 mph - N/A   Overcast
3:55 PM 24.8 °F 13.4 °F 11.1 °F 56% 29.86 in 10.0 mi SW 12.7 mph 19.6 mph N/A   Overcast
4:15 PM 24.3 °F 12.7 °F 12.2 °F 60% 29.85 in 5.0 mi SW 12.7 mph 19.6 mph N/A Snow Light Snow
4:35 PM 24.8 °F 14.6 °F 12.7 °F 60% 29.84 in 10.0 mi SW 10.4 mph 19.6 mph N/A   Overcast
4:55 PM 25.2 °F 15.7 °F 12.7 °F 59% 29.83 in 10.0 mi SW 9.2 mph 19.6 mph N/A   Mostly Cloudy
5:15 PM 25.3 °F 14.1 °F 13.1 °F 60% 29.81 in 10.0 mi SW 12.7 mph 19.6 mph N/A   Clear
5:35 PM 25.5 °F 16.2 °F 13.3 °F 60% 29.80 in 10.0 mi SW 9.2 mph 18.4 mph N/A   Clear
5:55 PM 25.7 °F 14.6 °F 13.5 °F 60% 29.80 in 10.0 mi SW 12.7 mph 18.4 mph N/A   Scattered Clouds
6:15 PM 25.7 °F 15.1 °F 13.8 °F 61% 29.79 in 10.0 mi SW 11.5 mph 17.3 mph N/A   Mostly Cloudy
6:35 PM 26.1 °F 15.0 °F 14.0 °F 60% 29.78 in 10.0 mi SW 12.7 mph 19.6 mph N/A   Mostly Cloudy
6:55 PM 26.4 °F 18.0 °F 14.4 °F 60% 29.80 in 10.0 mi SW 8.1 mph - N/A   Overcast
7:15 PM 27.0 °F 16.7 °F 14.5 °F 60% 29.79 in 10.0 mi SW 11.5 mph - N/A   Overcast
7:35 PM 27.1 °F 17.5 °F 15.1 °F 60% 29.79 in 10.0 mi WSW 10.4 mph 19.6 mph N/A   Overcast
7:55 PM 27.5 °F 18.6 °F 15.1 °F 60% 29.80 in 10.0 mi South 9.2 mph - N/A   Overcast
8:15 PM 27.9 °F 19.1 °F 14.9 °F 58% 29.79 in 10.0 mi SSE 9.2 mph - N/A   Overcast
8:35 PM 27.9 °F 18.4 °F 14.9 °F 58% 29.79 in 10.0 mi SSE 10.4 mph - N/A   Overcast
8:55 PM 27.9 °F 18.4 °F 14.7 °F 58% 29.79 in 10.0 mi South 10.4 mph - N/A   Overcast
9:15 PM 28.0 °F 18.1 °F 14.4 °F 57% 29.79 in 10.0 mi SSE 11.5 mph 16.1 mph N/A   Mostly Cloudy
9:35 PM 28.2 °F 20.2 °F 14.4 °F 56% 29.78 in 10.0 mi SSE 8.1 mph - N/A   Mostly Cloudy
9:55 PM 27.5 °F 18.0 °F 14.0 °F 57% 29.77 in 10.0 mi SSE 10.4 mph 16.1 mph N/A   Scattered Clouds
10:15 PM 28.0 °F 20.8 °F 14.0 °F 56% 29.77 in 10.0 mi SSE 6.9 mph - N/A   Mostly Cloudy
10:35 PM 27.5 °F 20.2 °F 13.8 °F 56% 29.77 in 10.0 mi SSE 6.9 mph - N/A   Scattered Clouds
10:55 PM 28.0 °F 20.0 °F 14.4 °F 57% 29.76 in 10.0 mi SSE 8.1 mph - N/A   Mostly Cloudy
11:15 PM 28.4 °F 21.2 °F 14.9 °F 57% 29.76 in 10.0 mi SSE 6.9 mph - N/A   Overcast
11:35 PM 28.9 °F 22.8 °F 15.1 °F 56% 29.75 in 10.0 mi SSE 5.8 mph - N/A   Overcast
11:55 PM 29.1 °F 22.1 °F 15.6 °F 57% 29.74 in 10.0 mi SSE 6.9 mph - N/A   Mostly Cloudy